STARLINK-1606, 46144

Orbit data source: Space-Track

STARLINK-1606, 46144 is a payload satellite owned by SpaceX/Seattle (US) in LEO that was launched on Tue, 18 Aug 2020 UTC via an FALCON 9 launch vehicle from the Air Force Eastern Test Range (AFETR). Payload-class satellites include a variety of spacecraft equipped with specific instruments for various scientific and technological missions. These include communications satellites like Starlink; space stations such as the ISS; scientific satellites like the Hubble; Earth observation satellites from companies like Planet Labs, Umbra, and HawkEye 360; GPS; miniature CubeSats for education and research; and military/defense satellites.

Loading next visibility...
Identifier
46144, 2020-057AD
Orbit
LEO
Country
Flag of USUS
Related business
Manufacturer
SpaceX/Seattle
Mission
Partially operational Commercial Communications
Bus & Motor
STARLINK, Unknown motor
Mass
260 kg wet, ~248 kg dry
Launch date (UTC)
2020-08-18 (6 years ago)
Launch vehicle
FALCON 9
Launch site
Air Force Eastern Test Range (AFETR)
Object type
Payload
Rocket body
Debris
Shape & HBR
Box + 1 Pan, 10.1 m
Radar Cross Section
13.562 m², Large (>1 m²)

Expand to show TLE details & history
Last TLE update: 11 hours ago

TLE from 11 hours ago
0 STARLINK-1606
1 46144U 20057AD  26072.00002315  .00104297  00000-0  10290-2 0  9998
2 46144  53.0457 240.1956 0001170 287.7583  15.5536 15.65138888  5947
Epoch: 2026-03-13T00:00Z
TLE epoch observation values (Epoch: 2026-03-13T00:00:02.000Z)
Latitude
-42.09871°
Longitude
27.01926°
Altitude
386.092 km
Speed
7.679 km/s
True Right ascension
13h 10m 40s
True Declination
-41° 55' 06"
Sunlit
Object was in full shadow at epoch
Visualization orbit readout
Latitude
Unknown
Longitude
Unknown
Altitude
Unknown
Speed
Unknown
Apparent Right ascension
Unknown
Apparent Declination
Unknown
Sunlit
N/A
Visualization observer readout
Local Sidereal Time
15:45:18
Azimuth
Unknown
Elevation
Unknown
Doppler factor
Unknown
Orbital elements
Apogee altitude
373.908 km
Perigee altitude
372.328 km
Semi-major axis
6,751.255 km
Eccentricity
0.00012
Inclination
53.0457°
RAAN
240.1956°
Arg. of periapsis
287.7583°
True anomaly
15.5572°
Mean anomaly
15.5536°
Eccentric anomaly
15.5554°
Mean motion
3.91261 °/min
Orbital period
92.01 mins
BSTAR
0.001029
Loading maneuver chart data...
Computing Atmospheric mass density...

Documentation

Showing up to 5 results
|